Location: Miles
(41.4492°N, 81.6087°W)
Time: 19:49:24
(UTC+00:00)

Transit 2A - Pass Details

Date: 14 September 2024
Orbit: 590 x 960 km, 66.7° (Epoch: 05 October)

Event Time Altitude Azimuth Distance (km) Brightness Sun altitude
Rises 08:48:55 0° 331° (NNW) 3,639 9.5 -25.3°
Reaches altitude 10° 08:51:35 10° 335° (NNW) 2,671 8.8 -24.8°
Maximum altitude 08:57:48 65° 57° (ENE) 988 6.7 -23.8°
Drops below altitude 10° 09:03:33 10° 139° (SE) 2,470 8.8 -22.9°
Sets 09:05:55 0° 142° (SE) 3,347 9.5 -22.5°
